Change the Weather History Date:

Monday, October 14, 2013

  Actual Average Record
Temperature  
Mean Temperature 54 °F -  
Max Temperature 66 °F 74 °F 84 °F (2011)
Min Temperature 41 °F 39 °F 41 °F (2013)
Degree Days  
Heating Degree Days 12    
Growing Degree Days 4 (Base 50)    
Moisture  
Dew Point 26 °F    
Average Humidity 38    
Maximum Humidity 70    
Minimum Humidity 15    
Precipitation  
Precipitation 0.00 in - - ()
Sea Level Pressure  
Sea Level Pressure 30.13 in    
Wind  
Wind Speed 2 mph (West)    
Max Wind Speed 12 mph    
Max Gust Speed 16 mph    
Visibility 10 miles    
Events      
Averages and records for this station are not official NWS values.
T = Trace of Precipitation, MM = Missing Value Source: NWS Daily Summary

Daily Weather History Graph

Daily Weather History Graph

Search for Another Location

Airport or City:

Trip Planner

Search our weather history database for the weather conditions in past years. The results will help you decide how hot, cold, wet, or windy it might be!

Date:

Astronomy

Oct. 14, 2013 Rise Set
Actual Time 6:30 AM MST 5:51 PM MST
Civil Twilight 6:04 AM MST 6:17 PM MST
Nautical Twilight 5:35 AM MST 6:46 PM MST
Astronomical Twilight 5:06 AM MST 7:15 PM MST
Moon 3:13 PM MST (10/14) 2:01 AM MST (10/14)
Length of Visible Light 12h 12m
Length of Day
11h 21m
Waxing Gibbous, 80% of the Moon is Illuminated
Oct 14
Waxing Gibbous
Oct 18
Full
Oct 26
Last Quarter
Nov 3
New
Nov 9
First Quarter

Hourly Weather History & Observations

Time (MST) Temp. Windchill Dew Point Humidity Pressure Visibility Wind Dir Wind Speed Gust Speed Precip Events Conditions
12:15 AM 51.8 °F - 32.0 °F 47% 30.11 in 10.0 mi Calm Calm - N/A   Clear
12:35 AM 51.8 °F - 32.0 °F 47% 30.11 in 10.0 mi Calm Calm - N/A   Clear
12:55 AM 51.8 °F - 32.0 °F 47% 30.12 in 10.0 mi WSW 3.5 mph - N/A   Clear
1:15 AM 50.0 °F - 32.0 °F 50% 30.12 in 10.0 mi Calm Calm - N/A   Clear
1:35 AM 48.2 °F - 32.0 °F 54% 30.12 in 10.0 mi Calm Calm - N/A   Clear
1:55 AM 50.0 °F - 32.0 °F 50% 30.12 in 10.0 mi Calm Calm - N/A   Clear
2:15 AM 48.2 °F - 32.0 °F 54% 30.12 in 10.0 mi Calm Calm - N/A   Clear
2:35 AM 50.0 °F - 32.0 °F 50% 30.11 in 10.0 mi Calm Calm - N/A   Clear
2:55 AM 46.4 °F - 32.0 °F 57% 30.12 in 10.0 mi Calm Calm - N/A   Clear
3:15 AM 46.4 °F - 32.0 °F 57% 30.12 in 10.0 mi Calm Calm - N/A   Clear
3:35 AM 46.4 °F - 32.0 °F 57% 30.12 in 10.0 mi Calm Calm - N/A   Clear
3:55 AM 46.4 °F - 32.0 °F 57% 30.12 in 10.0 mi Calm Calm - N/A   Clear
4:15 AM 44.6 °F - 32.0 °F 61% 30.12 in 10.0 mi Calm Calm - N/A   Clear
4:35 AM 44.6 °F - 32.0 °F 61% 30.12 in 10.0 mi Calm Calm - N/A   Clear
4:55 AM 44.6 °F 43.1 °F 33.8 °F 66% 30.12 in 10.0 mi ESE 3.5 mph - N/A   Clear
5:15 AM 44.6 °F - 32.0 °F 61% 30.13 in 10.0 mi Calm Calm - N/A   Clear
5:35 AM 42.8 °F - 32.0 °F 66% 30.14 in 10.0 mi Calm Calm - N/A   Clear
5:55 AM 42.8 °F - 32.0 °F 66% 30.14 in 10.0 mi Calm Calm - N/A   Clear
6:15 AM 42.8 °F - 32.0 °F 66% 30.14 in 10.0 mi Calm Calm - N/A   Clear
6:35 AM 41.0 °F - 32.0 °F 70% 30.15 in 10.0 mi Calm Calm - N/A   Clear
6:55 AM 42.8 °F - 32.0 °F 66% 30.15 in 10.0 mi Calm Calm - N/A   Clear
7:15 AM 42.8 °F - 32.0 °F 66% 30.16 in 10.0 mi Calm Calm - N/A   Clear
7:35 AM 44.6 °F - 33.8 °F 66% 30.16 in 10.0 mi Calm Calm - N/A   Clear
7:55 AM 48.2 °F - 33.8 °F 58% 30.17 in 10.0 mi Calm Calm - N/A   Clear
8:15 AM 53.6 °F - 33.8 °F 47% 30.17 in 10.0 mi Calm Calm - N/A   Clear
8:35 AM 55.4 °F - 33.8 °F 44% 30.17 in 10.0 mi Calm Calm - N/A   Clear
8:55 AM 57.2 °F - 30.2 °F 36% 30.18 in 10.0 mi Calm Calm - N/A   Clear
9:15 AM 57.2 °F - 32.0 °F 38% 30.18 in 10.0 mi Calm Calm - N/A   Clear
9:35 AM 59.0 °F - 32.0 °F 36% 30.18 in 10.0 mi Variable 5.8 mph - N/A   Clear
9:55 AM 60.8 °F - 30.2 °F 31% 30.18 in 10.0 mi Variable 6.9 mph - N/A   Clear
10:15 AM 60.8 °F - 24.8 °F 25% 30.18 in 10.0 mi Variable 6.9 mph - N/A   Clear
10:35 AM 60.8 °F - 24.8 °F 25% 30.18 in 10.0 mi WNW 5.8 mph 13.8 mph N/A   Clear
10:55 AM 60.8 °F - 23.0 °F 23% 30.17 in 10.0 mi WSW 8.1 mph - N/A   Clear
11:15 AM 62.6 °F - 23.0 °F 22% 30.17 in 10.0 mi West 8.1 mph - N/A   Clear
11:35 AM 62.6 °F - 26.6 °F 26% 30.16 in 10.0 mi WSW 10.4 mph - N/A   Clear
11:55 AM 62.6 °F - 26.6 °F 26% 30.15 in 10.0 mi West 8.1 mph 15.0 mph N/A   Clear
12:15 PM 64.4 °F - 26.6 °F 24% 30.15 in 10.0 mi WSW 8.1 mph - N/A   Clear
12:35 PM 64.4 °F - 23.0 °F 21% 30.14 in 10.0 mi West 8.1 mph - N/A   Clear
12:55 PM 64.4 °F - 23.0 °F 21% 30.13 in 10.0 mi West 10.4 mph 16.1 mph N/A   Clear
1:15 PM 64.4 °F - 21.2 °F 19% 30.13 in 10.0 mi Variable 4.6 mph 11.5 mph N/A   Clear
1:35 PM 64.4 °F - 15.8 °F 15% 30.12 in 10.0 mi Variable 6.9 mph 13.8 mph N/A   Clear
1:55 PM 66.2 °F - 19.4 °F 17% 30.11 in 10.0 mi WSW 6.9 mph 12.7 mph N/A   Clear
2:15 PM 66.2 °F - 19.4 °F 17% 30.11 in 10.0 mi SSW 8.1 mph 16.1 mph N/A   Clear
2:35 PM 66.2 °F - 19.4 °F 17% 30.11 in 10.0 mi SW 10.4 mph - N/A   Clear
2:55 PM 66.2 °F - 21.2 °F 18% 30.10 in 10.0 mi Variable 6.9 mph - N/A   Clear
3:15 PM 66.2 °F - 21.2 °F 18% 30.10 in 10.0 mi Variable 6.9 mph 13.8 mph N/A   Clear
3:35 PM 66.2 °F - 21.2 °F 18% 30.10 in 10.0 mi WSW 8.1 mph 13.8 mph N/A   Clear
3:55 PM 66.2 °F - 21.2 °F 18% 30.10 in 10.0 mi Variable 6.9 mph 12.7 mph N/A   Clear
4:15 PM 66.2 °F - 21.2 °F 18% 30.10 in 10.0 mi WSW 11.5 mph - N/A   Clear
4:35 PM 66.2 °F - 21.2 °F 18% 30.10 in 10.0 mi SW 4.6 mph - N/A   Clear
4:55 PM 64.4 °F - 21.2 °F 19% 30.10 in 10.0 mi West 6.9 mph - N/A   Clear
5:15 PM 64.4 °F - 19.4 °F 18% 30.10 in 10.0 mi Calm Calm - N/A   Clear
5:35 PM 62.6 °F - 21.2 °F 20% 30.10 in 10.0 mi WSW 4.6 mph - N/A   Clear
5:55 PM 60.8 °F - 21.2 °F 22% 30.10 in 10.0 mi West 4.6 mph - N/A   Clear
6:15 PM 59.0 °F - 21.2 °F 23% 30.10 in 10.0 mi West 4.6 mph - N/A   Clear
6:35 PM 59.0 °F - 23.0 °F 25% 30.10 in 10.0 mi West 3.5 mph - N/A   Clear
6:55 PM 59.0 °F - 23.0 °F 25% 30.11 in 10.0 mi West 4.6 mph - N/A   Clear
7:15 PM 59.0 °F - 24.8 °F 27% 30.11 in 10.0 mi West 3.5 mph - N/A   Clear
7:35 PM 55.4 °F - 24.8 °F 31% 30.12 in 10.0 mi Calm Calm - N/A   Clear
7:55 PM 55.4 °F - 24.8 °F 31% 30.12 in 10.0 mi Calm Calm - N/A   Clear
8:15 PM 53.6 °F - 23.0 °F 30% 30.13 in 10.0 mi Calm Calm - N/A   Clear
8:35 PM 51.8 °F - 24.8 °F 35% 30.13 in 10.0 mi Calm Calm - N/A   Clear
8:55 PM 51.8 °F - 23.0 °F 33% 30.13 in 10.0 mi NNW 3.5 mph - N/A   Clear
9:15 PM 50.0 °F - 23.0 °F 35% 30.13 in 10.0 mi NNW 4.6 mph - N/A   Clear
9:35 PM 48.2 °F - 23.0 °F 37% 30.13 in 10.0 mi ESE 3.5 mph - N/A   Clear
9:55 PM 51.8 °F - 21.2 °F 30% 30.13 in 10.0 mi NE 3.5 mph - N/A   Clear
10:15 PM 50.0 °F - 21.2 °F 32% 30.13 in 10.0 mi ENE 3.5 mph - N/A   Clear
10:35 PM 50.0 °F - 23.0 °F 35% 30.13 in 10.0 mi Calm Calm - N/A   Clear
10:55 PM 46.4 °F - 23.0 °F 40% 30.12 in 10.0 mi Calm Calm - N/A   Clear
11:15 PM 46.4 °F - 23.0 °F 40% 30.12 in 10.0 mi Calm Calm - N/A   Clear
11:35 PM 46.4 °F - 23.0 °F 40% 30.12 in 10.0 mi Calm Calm - N/A   Clear
11:55 PM 44.6 °F - 23.0 °F 43% 30.11 in 10.0 mi Calm Calm - N/A   Clear